Actual water levels and discharges of Elbe river

Guaranteed water level and forecast    Ústí nad Labem-Střekov

Guaranteed water level
160 cm
on 20.11.2019 more information
Forecast
160 cm
on 21.11.2019 07:00
Tendency
steady state
on 21.11.2019 metodika tendence
Forecast
(Source data ČHMÚ a Povodí Labe)

Děčín

Date and time (UTC) H (cm) Q (m3/s)
21. 11. 2019 02:50 130 132
21. 11. 2019 02:00 130 132
21. 11. 2019 01:00 130 132
21. 11. 2019 00:00 130 132
20. 11. 2019 23:00 130 132
20. 11. 2019 22:00 130 132
20. 11. 2019 21:00 130 132
20. 11. 2019 20:00 130 132
20. 11. 2019 19:00 130 132
20. 11. 2019 18:00 130 132
20. 11. 2019 17:00 131 134
20. 11. 2019 16:00 131 134
20. 11. 2019 15:00 132 135
20. 11. 2019 14:00 131 134

H - vodni stav, Q - discharge

Ústí nad Labem

Date and time (UTC) H (cm) Q (m3/s)
21. 11. 2019 02:40 164 132
21. 11. 2019 02:00 164 132
21. 11. 2019 01:00 164 132
21. 11. 2019 00:00 163 130
20. 11. 2019 23:00 163 130
20. 11. 2019 22:00 164 132
20. 11. 2019 21:00 164 132
20. 11. 2019 20:00 164 132
20. 11. 2019 19:00 164 132
20. 11. 2019 18:00 164 132
20. 11. 2019 17:00 164 132
20. 11. 2019 16:00 164 132
20. 11. 2019 15:00 163 130
20. 11. 2019 14:00 164 132

H - vodni stav, Q - discharge
more information

Mělník

Date and time (UTC) H (cm) Q (m3/s)
21. 11. 2019 02:50 267 -
21. 11. 2019 02:00 257 -
21. 11. 2019 01:00 248 -
21. 11. 2019 00:00 250 -
20. 11. 2019 23:00 264 -
20. 11. 2019 22:00 270 -
20. 11. 2019 21:00 257 -
20. 11. 2019 20:00 249 -
20. 11. 2019 19:00 257 -
20. 11. 2019 18:00 260 -
20. 11. 2019 17:00 262 -
20. 11. 2019 16:00 262 -
20. 11. 2019 15:00 261 -
20. 11. 2019 14:00 250 -

H - vodni stav, Q - discharge
more information

Kostelec nad Labem

Date and time (UTC) H (cm) Q (m3/s)
21. 11. 2019 02:50 404 -
21. 11. 2019 02:00 406 45
21. 11. 2019 01:00 408 46
21. 11. 2019 00:00 405 21
20. 11. 2019 23:00 401 17
20. 11. 2019 22:00 406 45
20. 11. 2019 21:00 408 54
20. 11. 2019 20:00 410 51
20. 11. 2019 19:00 403 21
20. 11. 2019 18:00 403 35
20. 11. 2019 17:00 407 53
20. 11. 2019 16:00 407 52
20. 11. 2019 15:00 407 48
20. 11. 2019 14:00 406 44

H - vodni stav, Q - discharge
more information

Přelouč

Date and time (UTC) H (cm) Q (m3/s)
21. 11. 2019 02:50 64 31
21. 11. 2019 02:00 64 31
21. 11. 2019 01:00 61 29
21. 11. 2019 00:00 60 28
20. 11. 2019 23:00 60 28
20. 11. 2019 22:00 60 28
20. 11. 2019 21:00 65 31
20. 11. 2019 20:00 66 32
20. 11. 2019 19:00 65 31
20. 11. 2019 18:00 60 28
20. 11. 2019 17:00 60 28
20. 11. 2019 16:00 66 32
20. 11. 2019 15:00 69 34
20. 11. 2019 14:00 68 34

H - vodni stav, Q - discharge
more information

Němčice

Date and time (UTC) H (cm) Q (m3/s)
21. 11. 2019 02:40 106 28
21. 11. 2019 02:00 105 28
21. 11. 2019 01:00 104 27
21. 11. 2019 00:00 105 28
20. 11. 2019 23:00 104 27
20. 11. 2019 22:00 103 27
20. 11. 2019 21:00 103 27
20. 11. 2019 20:00 103 27
20. 11. 2019 19:00 103 27
20. 11. 2019 18:00 102 27
20. 11. 2019 17:00 103 27
20. 11. 2019 16:00 105 28
20. 11. 2019 15:00 105 28
20. 11. 2019 14:00 106 28

H - vodni stav, Q - discharge
Source data
Labe Basin Vltava Basin ČHMÚ